Simultaneous Nadir Overpasses (SNOs) Predictions

Prediction of SNOs between GOES-17 and LANDSAT-8 Satellite Orbit:

Table of predicted SNOs for the next 14.0 days since TLE Epoch: 2/3/2024
Index Date Time (GOES-17) GOES-17 Lat,Lon LANDSAT-8 Lat,Lon Distance(km) Time Diff (sec)
1 02/03/2024 17:10:07 0.01,-104.69 0.01,-104.78 9.60 80
2 02/05/2024 17:00:36 0.01,-104.69 -0.59,-101.82 326.28 80
3 02/06/2024 05:22:00 -0.00,-104.69 -0.47,-107.02 264.64 80
4 02/08/2024 05:07:09 -0.01,-104.68 0.15,-104.07 70.96 80
5 02/10/2024 04:54:58 -0.01,-104.68 0.73,-101.10 406.71 80
6 02/10/2024 17:16:13 0.01,-104.68 0.35,-106.26 179.72 80
7 02/12/2024 17:06:42 0.02,-104.69 -0.30,-103.31 156.71 80
8 02/13/2024 05:28:06 -0.01,-104.69 -0.80,-108.50 433.47 80
9 02/14/2024 16:54:30 0.02,-104.69 -0.91,-100.35 493.27 80
10 02/15/2024 05:15:54 -0.01,-104.69 -0.19,-105.55 96.94 80
